�N����,����,�g�[���i�L�b�`���j���x,�g�[�����x,��g�[���i���ʏ��j���x,����
 2003/02/01, 0:00,17,39,7,8.9
 2003/02/01, 0:15,16.8,39,6.9,9
 2003/02/01, 0:30,16.7,39,6.9,9
 2003/02/01, 0:45,16.6,39,7.1,9.1
 2003/02/01, 1:00,16.5,39,7.2,8
 2003/02/01, 1:15,16.3,39,7.3,8
 2003/02/01, 1:30,16.2,39,7.6,8.1
 2003/02/01, 1:45,16,39,7.3,8.2
 2003/02/01, 2:00,15.5,39,6.9,8.2
 2003/02/01, 2:15,14.3,41,6.8,8.3
 2003/02/01, 2:30,13.7,40,6.7,8.4
 2003/02/01, 2:45,13.2,40,6.5,8.5
 2003/02/01, 3:00,12.9,40,6.4,8.5
 2003/02/01, 3:15,12.6,40,6.5,8.6
 2003/02/01, 3:30,12.3,40,6.5,8.7
 2003/02/01, 3:45,12,41,6.5,8.7
 2003/02/01, 4:00,11.7,41,6.5,8.8
 2003/02/01, 4:15,11.6,41,6.2,8.8
 2003/02/01, 4:30,11.5,41,6.2,8.9
 2003/02/01, 4:45,11.3,42,6.1,9
 2003/02/01, 5:00,11.1,42,6,9
 2003/02/01, 5:15,10.9,42,5.9,9.1
 2003/02/01, 5:30,10.7,42,5.8,9.1
 2003/02/01, 5:45,10.5,43,5.8,9.2
 2003/02/01, 6:00,10.4,43,5.8,9.2
 2003/02/01, 6:15,10.3,43,5.8,9.2
 2003/02/01, 6:30,10.1,44,5.9,9.3
 2003/02/01, 6:45,10,44,5.9,7.6
 2003/02/01, 7:00,13,41,5.8,7.5
 2003/02/01, 7:15,15.1,40,6.6,7.6
 2003/02/01, 7:30,17.4,37,6.5,7.6
 2003/02/01, 7:45,16.7,38,6.6,7.7
 2003/02/01, 8:00,20,34,7.4,7.6
 2003/02/01, 8:15,18.4,38,7.4,7.7
 2003/02/01, 8:30,20.3,35,8.4,7.8
 2003/02/01, 8:45,18.8,36,8.6,7.2
 2003/02/01, 9:00,17.1,37,8.9,7.3
 2003/02/01, 9:15,15.5,40,8.4,7.4
 2003/02/01, 9:30,15.1,42,9,7.5
 2003/02/01, 9:45,14.4,40,9.7,7.4
 2003/02/01,10:00,14.2,37,9.2,7.4
 2003/02/01,10:15,13.8,38,9.4,7
 2003/02/01,10:30,13.4,38,9.6,7.1
 2003/02/01,10:45,13.8,39,10,7.2
 2003/02/01,11:00,13.3,39,10.1,7.3
 2003/02/01,11:15,13.4,38,10.7,7
 2003/02/01,11:30,13.1,38,10.5,7.1
 2003/02/01,11:45,12.5,39,9.6,7.1
 2003/02/01,12:00,12.4,40,9.5,7.2
 2003/02/01,12:15,12.5,40,10.5,7.3
 2003/02/01,12:30,12.6,40,10.9,6.8
 2003/02/01,12:45,14.4,41,10.3,6.9
 2003/02/01,13:00,15.3,37,11,6.9
 2003/02/01,13:15,17.6,36,10.9,7
 2003/02/01,13:30,18.6,33,11.6,7.1
 2003/02/01,13:45,16.9,35,12.4,7.2
 2003/02/01,14:00,16.9,35,13,7.3
 2003/02/01,14:15,16.6,35,12.5,7.3
 2003/02/01,14:30,16.5,35,11.9,7.4
 2003/02/01,14:45,16.4,34,10.9,7.5
 2003/02/01,15:00,16.3,36,10.3,7.6
 2003/02/01,15:15,16.3,37,10.5,6.9
 2003/02/01,15:30,15.1,37,12,7
 2003/02/01,15:45,14.7,38,12.3,7.2
 2003/02/01,16:00,14.2,37,11.5,7.2
 2003/02/01,16:15,13.9,37,11,7.3
 2003/02/01,16:30,13.7,37,11.4,7.4
 2003/02/01,16:45,13.3,37,10.3,7.6
 2003/02/01,17:00,13.3,38,9.6,7.6
 2003/02/01,17:15,13.2,38,9.5,7.7
 2003/02/01,17:30,13.2,41,10.3,7.8
 2003/02/01,17:45,13.3,41,10.1,7.9
 2003/02/01,18:00,15.2,41,9.4,8
 2003/02/01,18:15,15.7,42,10.1,8.1
 2003/02/01,18:30,15.8,41,9.7,8.2
 2003/02/01,18:45,17.3,40,9.1,8.3
 2003/02/01,19:00,18.5,38,8.7,8.4
 2003/02/01,19:15,18.1,37,8.4,8.5
 2003/02/01,19:30,17.9,37,8.4,8.6
 2003/02/01,19:45,17,37,8.4,8.7
 2003/02/01,20:00,17.6,38,8.6,8.8
 2003/02/01,20:15,17.6,38,8.2,8.9
 2003/02/01,20:30,16.3,38,8.1,8.8
 2003/02/01,20:45,15.2,38,8.1,8.5
 2003/02/01,21:00,14.7,38,7.8,8.6
 2003/02/01,21:15,14.7,41,7.4,8.6
 2003/02/01,21:30,15.7,39,7.3,8.7
 2003/02/01,21:45,16,39,7.3,8.8
 2003/02/01,22:00,16.1,40,7.3,8.8
 2003/02/01,22:15,16,39,7.2,8.9
 2003/02/01,22:30,15.9,39,6.9,9
 2003/02/01,22:45,15.8,39,6.7,9.1
 2003/02/01,23:00,15.8,39,6.5,9.1
 2003/02/01,23:15,15.3,38,6.3,8.2
 2003/02/01,23:30,13.9,39,6,8.2
 2003/02/01,23:45,13.4,38,5.9,8.2
 2003/02/02, 0:00,12.9,38,6,8.3
 2003/02/02, 0:15,12.6,38,5.8,8.4
 2003/02/02, 0:30,12.2,38,5.6,8.4
 2003/02/02, 0:45,11.8,38,5.3,8.5
 2003/02/02, 1:00,11.5,38,5.2,8.6
 2003/02/02, 1:15,11.2,39,5,8.6
 2003/02/02, 1:30,10.9,39,5,8.7
 2003/02/02, 1:45,10.8,39,5.1,8.7
 2003/02/02, 2:00,10.5,39,5.1,8.8
 2003/02/02, 2:15,10.3,39,5.2,8.8
 2003/02/02, 2:30,10.2,40,5,8.8
 2003/02/02, 2:45,10,40,4.9,8.9
 2003/02/02, 3:00,9.8,40,4.8,8.9
 2003/02/02, 3:15,9.6,40,4.8,9
 2003/02/02, 3:30,9.5,40,4.7,9
 2003/02/02, 3:45,9.6,40,4.5,9
 2003/02/02, 4:00,9.3,41,4.3,9.1
 2003/02/02, 4:15,9.1,41,4.3,9.1
 2003/02/02, 4:30,9,41,4.3,9.1
 2003/02/02, 4:45,8.9,41,4.4,9.1
 2003/02/02, 5:00,8.7,41,4.4,9.2
 2003/02/02, 5:15,8.7,41,4.4,9.2
 2003/02/02, 5:30,8.5,41,4.3,9.2
 2003/02/02, 5:45,8.4,41,4.3,9.2
 2003/02/02, 6:00,8.4,42,4.3,9.2
 2003/02/02, 6:15,8.2,42,4.2,9.2
 2003/02/02, 6:30,8.1,42,4.1,9.2
 2003/02/02, 6:45,8.1,42,4.1,9.2
 2003/02/02, 7:00,8,42,4,7
 2003/02/02, 7:15,14,40,4.3,7
 2003/02/02, 7:30,19,32,5.3,7
 2003/02/02, 7:45,17.4,37,5.4,7.1
 2003/02/02, 8:00,17.2,36,5.9,7.2
 2003/02/02, 8:15,17.5,36,6.2,6.8
 2003/02/02, 8:30,18,34,6.6,6.8
 2003/02/02, 8:45,15.6,39,6.5,6.8
 2003/02/02, 9:00,15.3,39,6.5,6.9
 2003/02/02, 9:15,13.9,40,6.8,7
 2003/02/02, 9:30,13.1,40,6.9,7.1
 2003/02/02, 9:45,12.8,40,7.1,7.1
 2003/02/02,10:00,12.9,41,7.3,7.2
 2003/02/02,10:15,12.4,40,7.9,6.8
 2003/02/02,10:30,11.6,40,7.9,6.8
 2003/02/02,10:45,12,40,8.4,6.9
 2003/02/02,11:00,12.3,41,8.5,7
 2003/02/02,11:15,12.3,42,9,7
 2003/02/02,11:30,12.1,42,9.1,6.6
 2003/02/02,11:45,12,43,9.1,6.7
 2003/02/02,12:00,12.6,46,9.9,6.8
 2003/02/02,12:15,16,42,10.1,6.9
 2003/02/02,12:30,18.5,36,9.3,6.9
 2003/02/02,12:45,16.6,40,9.3,7
 2003/02/02,13:00,16.5,40,10.8,6.6
 2003/02/02,13:15,16.3,40,11,6.8
 2003/02/02,13:30,16.4,40,11.7,6.9
 2003/02/02,13:45,16.5,40,11.9,7
 2003/02/02,14:00,16.5,41,12.2,7.2
 2003/02/02,14:15,16.5,41,12.7,7.4
 2003/02/02,14:30,16.9,40,13.1,7.2
 2003/02/02,14:45,16.7,40,13.5,7.3
 2003/02/02,15:00,16.1,40,13.4,7.4
 2003/02/02,15:15,16.1,41,14,7.6
 2003/02/02,15:30,15.9,40,13.9,7.8
 2003/02/02,15:45,15.7,41,14,8.1
 2003/02/02,16:00,15.5,42,13.5,8.4
 2003/02/02,16:15,15.2,41,13.4,8.7
 2003/02/02,16:30,15.1,39,13.2,8.9
 2003/02/02,16:45,14.8,39,12.6,9.2
 2003/02/02,17:00,14.3,39,11.4,9.4
 2003/02/02,17:15,14,38,11,9.6
 2003/02/02,17:30,13.9,39,10.8,9.8
 2003/02/02,17:45,13.8,39,11,10
 2003/02/02,18:00,15.7,39,13.1,10.2
 2003/02/02,18:15,16.2,40,12.6,10.4
 2003/02/02,18:30,16,42,10.5,10.6
 2003/02/02,18:45,16.4,41,9.7,10.8
 2003/02/02,19:00,18.4,38,9.2,10.9
 2003/02/02,19:15,18.4,39,9.5,11.1
 2003/02/02,19:30,18.7,38,8.7,11.2
 2003/02/02,19:45,17.9,37,8.3,11.4
 2003/02/02,20:00,17.7,38,8,11.5
 2003/02/02,20:15,17.4,39,7.9,11.6
 2003/02/02,20:30,17.2,39,7.7,11.7
 2003/02/02,20:45,17.2,38,7.5,11.8
 2003/02/02,21:00,17.1,38,7.3,11.9
 2003/02/02,21:15,16.9,37,7.5,12
 2003/02/02,21:30,16.9,37,7.3,12.1
 2003/02/02,21:45,16.8,37,7.5,12.2
 2003/02/02,22:00,16.8,38,7.2,9.4
 2003/02/02,22:15,16.7,38,6.9,9.4
 2003/02/02,22:30,16.6,38,6.7,9.5
 2003/02/02,22:45,16.6,39,6.7,9.6
 2003/02/02,23:00,16.4,39,6.8,9.7
 2003/02/02,23:15,16.4,39,6.6,9.8
 2003/02/02,23:30,15.5,39,6.5,8.2
 2003/02/02,23:45,14.3,42,6.5,8.2
 2003/02/03, 0:00,13.7,41,6.2,8.3
 2003/02/03, 0:15,13.2,40,6.2,8.3
 2003/02/03, 0:30,12.8,39,6,8.4
 2003/02/03, 0:45,12.5,39,5.9,8.5
 2003/02/03, 1:00,12.1,39,5.9,8.5
 2003/02/03, 1:15,11.9,39,5.9,8.6
 2003/02/03, 1:30,11.7,39,6.1,8.7
 2003/02/03, 1:45,11.4,39,6,8.8
 2003/02/03, 2:00,11.2,39,5.9,8.8
 2003/02/03, 2:15,11,40,5.8,8.9
 2003/02/03, 2:30,10.7,40,5.8,8.9
 2003/02/03, 2:45,10.6,40,5.7,9
 2003/02/03, 3:00,10.5,40,5.7,9
 2003/02/03, 3:15,10.3,40,5.7,9.1
 2003/02/03, 3:30,10.1,41,5.4,9.1
 2003/02/03, 3:45,10,41,5.3,9.2
 2003/02/03, 4:00,9.9,41,5.1,9.2
 2003/02/03, 4:15,9.8,42,5,9.2
 2003/02/03, 4:30,9.6,42,5,9.3
 2003/02/03, 4:45,9.4,43,4.8,9.3
 2003/02/03, 5:00,9.3,43,4.7,9.3
 2003/02/03, 5:15,9.2,43,4.5,9.4
 2003/02/03, 5:30,9.2,42,4.6,9.4
 2003/02/03, 5:45,9.1,42,4.5,9.4
 2003/02/03, 6:00,9,42,4.5,8.4
 2003/02/03, 6:15,10,42,4.4,7.2
 2003/02/03, 6:30,17.9,32,4.6,7.2
 2003/02/03, 6:45,18.1,35,4.9,7.3
 2003/02/03, 7:00,19.1,34,5.3,7.4
 2003/02/03, 7:15,19.4,34,5.4,7.4
 2003/02/03, 7:30,20.3,33,5.8,6.4
 2003/02/03, 7:45,19.1,33,5.8,5.8
 2003/02/03, 8:00,18.6,35,6,5.9
 2003/02/03, 8:15,18.6,35,6.2,6
 2003/02/03, 8:30,18.8,34,6.4,6.1
 2003/02/03, 8:45,18.7,35,7.7,6.2
 2003/02/03, 9:00,18.1,34,7.5,6.3
 2003/02/03, 9:15,16.1,38,7.7,6.4
 2003/02/03, 9:30,15.4,38,8.5,6.6
 2003/02/03, 9:45,14.4,35,8.1,6.7
 2003/02/03,10:00,14.6,38,8.3,6.8
 2003/02/03,10:15,14.4,37,8.3,6.8
 2003/02/03,10:30,14,37,8.9,6.9
 2003/02/03,10:45,13.9,37,9.5,7
 2003/02/03,11:00,14,36,9.9,7.1
 2003/02/03,11:15,14,39,10.1,6.9
 2003/02/03,11:30,13.9,39,10.4,7.1
 2003/02/03,11:45,13.8,39,10.6,7.1
 2003/02/03,12:00,13.5,38,10.5,7.2
 2003/02/03,12:15,13.8,39,11,7.3
 2003/02/03,12:30,16,40,11.6,7.4
 2003/02/03,12:45,16.9,39,11.6,7.5
 2003/02/03,13:00,17.2,38,11.6,7.6
 2003/02/03,13:15,17.7,37,11.6,7.7
 2003/02/03,13:30,17.9,37,12.3,7.8
 2003/02/03,13:45,17.7,37,12.6,7.9
 2003/02/03,14:00,18,37,12.7,8
 2003/02/03,14:15,16.6,37,12.9,8.1
 2003/02/03,14:30,15.8,37,12.9,8.3
 2003/02/03,14:45,15.6,37,13.4,8.4
 2003/02/03,15:00,15.8,38,13.8,8.5
 2003/02/03,15:15,15.8,40,14.1,8.6
 2003/02/03,15:30,15.8,41,13.8,8.7
 2003/02/03,15:45,15.3,40,12.4,8.4
 2003/02/03,16:00,15.1,40,11.5,8.4
 2003/02/03,16:15,14.9,39,11,8.5
 2003/02/03,16:30,14.8,39,10.8,8.6
 2003/02/03,16:45,14.6,40,10.5,8.6
 2003/02/03,17:00,15.1,40,9.9,8.7
 2003/02/03,17:15,20.5,35,9.5,8.8
 2003/02/03,17:30,22.2,34,9,8.9
 2003/02/03,17:45,22.2,33,8.6,9
 2003/02/03,18:00,22.7,31,8.5,9.1
 2003/02/03,18:15,22.7,31,8.4,9.2
 2003/02/03,18:30,22.2,30,8.2,9.3
 2003/02/03,18:45,18.2,36,9.2,9.4
 2003/02/03,19:00,17.3,36,9.5,9.5
 2003/02/03,19:15,16.8,38,8.7,9.6
 2003/02/03,19:30,16.5,38,8.7,9.7
 2003/02/03,19:45,16.1,38,8.4,9.7
 2003/02/03,20:00,15.4,36,9.5,9.8
 2003/02/03,20:15,15.1,38,9.2,9.9
 2003/02/03,20:30,15.3,40,8.7,10
 2003/02/03,20:45,14.8,39,8.4,10.1
 2003/02/03,21:00,14.6,39,8.3,10.2
 2003/02/03,21:15,14.2,39,8,10.3
 2003/02/03,21:30,14,38,8.9,10.3
 2003/02/03,21:45,16,39,8.1,10.6
 2003/02/03,22:00,20,34,8.4,9.3
 2003/02/03,22:15,20.9,33,9.2,9.3
 2003/02/03,22:30,20.5,34,7.7,9.4
 2003/02/03,22:45,19.8,36,7.3,9.5
 2003/02/03,23:00,19.6,36,7.1,9.5
 2003/02/03,23:15,18.5,37,7.2,9.6
 2003/02/03,23:30,17.9,37,7.1,9.7
 2003/02/03,23:45,16.1,38,6.9,9.7
 2003/02/04, 0:00,15.2,39,6.7,9.8
 2003/02/04, 0:15,14.6,39,6.5,9.9
 2003/02/04, 0:30,14.2,38,6.5,9.9
 2003/02/04, 0:45,13.7,38,6.4,10
 2003/02/04, 1:00,13.3,38,6.2,10.1
 2003/02/04, 1:15,12.9,38,6.2,10.1
 2003/02/04, 1:30,12.6,38,6.1,10.2
 2003/02/04, 1:45,12.4,38,6.2,10.2
 2003/02/04, 2:00,12.1,39,6.2,10.3
 2003/02/04, 2:15,11.9,39,6.2,10.3
 2003/02/04, 2:30,11.7,39,6.2,10.4
 2003/02/04, 2:45,11.5,40,6.3,10.4
 2003/02/04, 3:00,11.3,40,6.2,10.5
 2003/02/04, 3:15,11.1,41,5.9,10.5
 2003/02/04, 3:30,10.9,41,5.8,10.6
 2003/02/04, 3:45,10.7,41,5.3,10.6
 2003/02/04, 4:00,10.7,42,5.3,10.6
 2003/02/04, 4:15,10.5,42,5.1,10.6
 2003/02/04, 4:30,10.3,42,5.1,10.7
 2003/02/04, 4:45,10.1,42,4.8,10.7
 2003/02/04, 5:00,10,42,4.6,10.7
 2003/02/04, 5:15,9.8,42,4.4,10.7
 2003/02/04, 5:30,9.6,42,4.1,10.7
 2003/02/04, 5:45,9.5,42,4,10.7
 2003/02/04, 6:00,9.3,42,3.8,10.7
 2003/02/04, 6:15,12.3,40,3.7,7.6
 2003/02/04, 6:30,15.4,38,3.8,7.6
 2003/02/04, 6:45,18.7,33,4.3,7.7
 2003/02/04, 7:00,20.4,32,4.4,7.7
 2003/02/04, 7:15,21.2,31,4.4,7.8
 2003/02/04, 7:30,20.2,33,4.7,7.9
 2003/02/04, 7:45,17.8,35,5.3,7.9
 2003/02/04, 8:00,16.3,37,5.4,8
 2003/02/04, 8:15,16.6,38,5.8,8.1
 2003/02/04, 8:30,16.3,38,6.2,8.2
 2003/02/04, 8:45,16,37,6.7,8.2
 2003/02/04, 9:00,15.8,37,6.9,7.2
 2003/02/04, 9:15,15.8,36,7.6,7.3
 2003/02/04, 9:30,15.9,36,7.9,7.4
 2003/02/04, 9:45,15.1,34,7.9,7.5
 2003/02/04,10:00,14.6,33,8.2,7.5
 2003/02/04,10:15,15.6,35,8.2,7.6
 2003/02/04,10:30,15.7,35,8.9,7.7
 2003/02/04,10:45,15.7,35,9.1,7.8
 2003/02/04,11:00,15.8,33,9.5,7.9
 2003/02/04,11:15,13.4,32,9.8,7.9
 2003/02/04,11:30,13.7,34,9.8,8
 2003/02/04,11:45,13.8,35,10.1,8.1
 2003/02/04,12:00,13.9,36,10.6,8.2
 2003/02/04,12:15,15.3,36,11.1,8.2
 2003/02/04,12:30,16.5,35,11.6,8.3
 2003/02/04,12:45,17,33,12.1,8.4
 2003/02/04,13:00,17.1,33,12.4,8.5
 2003/02/04,13:15,17.1,32,12.9,8.6
 2003/02/04,13:30,15.4,30,13.3,8.7
 2003/02/04,13:45,15.3,32,13.6,8.7
 2003/02/04,14:00,14.7,33,13.4,8.8
 2003/02/04,14:15,14.5,33,13.4,8.9
 2003/02/04,14:30,14.2,34,13.5,9
 2003/02/04,14:45,14.5,35,13.9,8.3
 2003/02/04,15:00,14.6,36,13.8,8.3
 2003/02/04,15:15,14.6,37,13.7,8.4
 2003/02/04,15:30,18.7,32,13.5,8.5
 2003/02/04,15:45,15.4,37,13.5,8.4
 2003/02/04,16:00,14.9,38,13.6,8.5
 2003/02/04,16:15,14.9,38,13.6,8.6
 2003/02/04,16:30,14.8,39,13.5,8.7
 2003/02/04,16:45,14.6,39,13.4,8.8
 2003/02/04,17:00,14.4,38,12.8,8.9
 2003/02/04,17:15,14.2,37,11.5,9
 2003/02/04,17:30,19.5,29,10.6,9.1
 2003/02/04,17:45,19.1,33,10,9.1
 2003/02/04,18:00,18.1,34,9.8,9.2
 2003/02/04,18:15,18,34,10,9.3
 2003/02/04,18:30,18,35,11.4,9.4
 2003/02/04,18:45,17.9,35,10.9,9.5
 2003/02/04,19:00,17.6,38,11.2,9.6
 2003/02/04,19:15,17.5,37,12,9.7
 2003/02/04,19:30,19.2,36,11.2,9.7
 2003/02/04,19:45,19.3,36,10.8,9.8
 2003/02/04,20:00,19.7,35,10.3,9.9
 2003/02/04,20:15,19.9,35,10.2,10
 2003/02/04,20:30,19.5,35,10.2,10.1
 2003/02/04,20:45,20.6,34,10.1,10.2
 2003/02/04,21:00,21.5,32,10.3,10.3
 2003/02/04,21:15,17.5,35,9.9,9.3
 2003/02/04,21:30,16.7,36,9.6,9.4
 2003/02/04,21:45,16,36,9.5,9.5
 2003/02/04,22:00,15.7,36,9.3,9.5
 2003/02/04,22:15,15.2,36,8.9,9.6
 2003/02/04,22:30,14.8,37,8.7,9.7
 2003/02/04,22:45,14.5,37,8.7,9.8
 2003/02/04,23:00,14.2,37,8.7,8.9
 2003/02/04,23:15,14,39,8.5,8.9
 2003/02/04,23:30,13.8,39,8.4,9
 2003/02/04,23:45,13.9,40,8.3,9
 2003/02/05, 0:00,19.6,34,9.2,9.1
 2003/02/05, 0:15,23.5,27,8.9,9.2
 2003/02/05, 0:30,25,24,8.9,9.3
 2003/02/05, 0:45,16.8,38,8.7,8.8
 2003/02/05, 1:00,15.7,39,8.3,8.9
 2003/02/05, 1:15,15,41,8,8.9
 2003/02/05, 1:30,14.4,42,7.7,9
 2003/02/05, 1:45,14,42,7.5,9.1
 2003/02/05, 2:00,13.5,43,7.2,9.1
 2003/02/05, 2:15,13.3,42,7,9.2
 2003/02/05, 2:30,13.1,43,6.8,9.2
 2003/02/05, 2:45,12.8,43,6.9,9.3
 2003/02/05, 3:00,12.5,43,6.7,8.3
 2003/02/05, 3:15,12.3,43,6.5,8.3
 2003/02/05, 3:30,12.1,43,6.3,8.4
 2003/02/05, 3:45,12,43,6.2,8.4
 2003/02/05, 4:00,11.8,44,6,8.5
 2003/02/05, 4:15,11.6,44,5.8,8.5
 2003/02/05, 4:30,11.3,44,5.7,8.6
 2003/02/05, 4:45,11.1,44,5.7,8.6
 2003/02/05, 5:00,11.1,44,5.8,8.7
 2003/02/05, 5:15,10.9,45,5.8,8.7
 2003/02/05, 5:30,10.9,44,5.8,8.8
 2003/02/05, 5:45,10.7,45,5.7,8.8
 2003/02/05, 6:00,10.5,45,5.6,8.7
 2003/02/05, 6:15,10.7,45,5.5,7.6
 2003/02/05, 6:30,17.4,37,5.7,7.6
 2003/02/05, 6:45,19,35,6.1,7.7
 2003/02/05, 7:00,19.5,37,5.9,7.8
 2003/02/05, 7:15,20.1,36,5.8,7.8
 2003/02/05, 7:30,20,36,6.1,7.9
 2003/02/05, 7:45,19.2,36,6.4,8
 2003/02/05, 8:00,17.2,39,7.2,8.1
 2003/02/05, 8:15,16.3,41,6.9,8.1
 2003/02/05, 8:30,16.4,41,7.8,8.2
 2003/02/05, 8:45,17,41,8.3,8.3
 2003/02/05, 9:00,16.9,41,8.5,8.4
 2003/02/05, 9:15,17.2,40,8.3,8.5
 2003/02/05, 9:30,16,42,8.4,8.6
 2003/02/05, 9:45,14.5,41,8.4,7.8
 2003/02/05,10:00,14.2,42,8.6,7.9
 2003/02/05,10:15,13.2,39,8.7,8
 2003/02/05,10:30,13.1,41,8.9,8.1
 2003/02/05,10:45,13.1,42,9,8.1
 2003/02/05,11:00,13,43,9.3,8.2
 2003/02/05,11:15,13,43,9.9,8.3
 2003/02/05,11:30,13,43,10.2,8.4
 2003/02/05,11:45,12.8,43,10.3,7.9
 2003/02/05,12:00,12.8,43,10.1,7.9
 2003/02/05,12:15,13.2,44,10.9,8
 2003/02/05,12:30,13.4,44,11.4,8
 2003/02/05,12:45,13.3,43,11.5,8.1
 2003/02/05,13:00,13.5,45,11.9,8.2
 2003/02/05,13:15,13.7,44,12.2,8.3
 2003/02/05,13:30,15.9,43,12.8,8.4
 2003/02/05,13:45,16.4,42,13.2,8.5
 2003/02/05,14:00,17.2,37,14.2,8.6
 2003/02/05,14:15,15.7,41,15.4,8.7
 2003/02/05,14:30,15.7,41,16.2,8.8
 2003/02/05,14:45,15.6,42,16.7,8.9
 2003/02/05,15:00,16.6,43,16.5,9
 2003/02/05,15:15,17.5,42,16.9,8.6
 2003/02/05,15:30,16.5,42,16.9,8.7
 2003/02/05,15:45,16.2,41,16.8,8.8
 2003/02/05,16:00,18.7,38,16,8.9
 2003/02/05,16:15,19.1,40,14.5,9
 2003/02/05,16:30,20.7,37,13.3,8.8
 2003/02/05,16:45,21,35,12.5,8.9
 2003/02/05,17:00,21.4,35,12,9
 2003/02/05,17:15,21.8,34,11.6,9.1
 2003/02/05,17:30,21.8,33,11.2,9.2
 2003/02/05,17:45,21.9,33,11.2,9.3
 2003/02/05,18:00,18.2,38,10.8,9.4
 2003/02/05,18:15,17.4,38,10.5,9.4
 2003/02/05,18:30,16.9,39,10.2,9.5
 2003/02/05,18:45,16.3,38,9.9,9.6
 2003/02/05,19:00,16,39,9.8,9.7
 2003/02/05,19:15,19.7,37,9.7,9.8
 2003/02/05,19:30,20.2,36,9.6,9.2
 2003/02/05,19:45,19.8,36,9.6,9.3
 2003/02/05,20:00,19.8,36,10.4,9.4
 2003/02/05,20:15,20.1,36,12.9,9.4
 2003/02/05,20:30,20.2,36,11.1,9.5
 2003/02/05,20:45,20.4,36,10.8,9.6
 2003/02/05,21:00,20.5,36,11.2,9.7
 2003/02/05,21:15,19.7,36,10.6,9.8
 2003/02/05,21:30,18.3,38,10.3,9.9
 2003/02/05,21:45,17.9,37,10,10
 2003/02/05,22:00,17.4,37,9.8,9.6
 2003/02/05,22:15,16.3,37,9.6,9.6
 2003/02/05,22:30,15.8,37,9.5,8.7
 2003/02/05,22:45,15.4,36,9.3,8.7
 2003/02/05,23:00,15.3,37,10,8.8
 2003/02/05,23:15,16.7,40,10.1,8.9
 2003/02/05,23:30,17,38,10,8.9
 2003/02/05,23:45,17.2,38,9.5,9
 2003/02/06, 0:00,16,37,9.9,9.1
 2003/02/06, 0:15,15.2,38,9.3,8.9
 2003/02/06, 0:30,14.9,38,8.7,9
 2003/02/06, 0:45,14.4,38,8.3,9
 2003/02/06, 1:00,14,39,8.1,9.1
 2003/02/06, 1:15,13.6,39,7.9,9.2
 2003/02/06, 1:30,13.2,39,7.6,9.2
 2003/02/06, 1:45,13,39,7.4,7.4
 2003/02/06, 2:00,12.7,39,7.2,7.6
 2003/02/06, 2:15,12.4,39,7,7.6
 2003/02/06, 2:30,12.2,39,6.7,7.7
 2003/02/06, 2:45,12,39,6.5,7.8
 2003/02/06, 3:00,11.8,40,6.4,7.9
 2003/02/06, 3:15,11.5,40,6.3,7.9
 2003/02/06, 3:30,11.4,40,6.2,8
 2003/02/06, 3:45,11.1,40,6,8.1
 2003/02/06, 4:00,11,41,5.8,8.2
 2003/02/06, 4:15,10.9,41,5.8,7.3
 2003/02/06, 4:30,10.7,41,5.7,7.4
 2003/02/06, 4:45,10.5,41,5.6,7.4
 2003/02/06, 5:00,10.3,41,5.6,7.5
 2003/02/06, 5:15,10.3,41,5.3,7.6
 2003/02/06, 5:30,10,41,5.3,7.6
 2003/02/06, 5:45,9.8,41,5.2,7.7
 2003/02/06, 6:00,9.7,41,5.1,7.8
 2003/02/06, 6:15,17.3,29,5.1,6.9
 2003/02/06, 6:30,17.9,33,6.1,7
 2003/02/06, 6:45,18.9,34,6.6,7.1
 2003/02/06, 7:00,20.4,33,6.5,7.2
 2003/02/06, 7:15,21.6,31,7.7,7
 2003/02/06, 7:30,20.6,33,7.5,7.1
 2003/02/06, 7:45,22.2,31,7.5,7.2
 2003/02/06, 8:00,20.1,33,7.3,7.2
 2003/02/06, 8:15,18.3,35,7.9,7.3
 2003/02/06, 8:30,17.4,37,7.9,7.4
 2003/02/06, 8:45,16.8,38,7.8,7.5
 2003/02/06, 9:00,17.7,37,8.9,7.6
 2003/02/06, 9:15,18.1,37,9.1,7.7
 2003/02/06, 9:30,15.6,35,8.7,7.8
 2003/02/06, 9:45,14.2,36,8.7,7.8
 2003/02/06,10:00,14.3,37,9,7.9
 2003/02/06,10:15,13.8,36,8.8,8
 2003/02/06,10:30,13.3,35,9.3,8.1
 2003/02/06,10:45,13.5,37,9.2,8.2
 2003/02/06,11:00,13.9,38,9.5,8.2
 2003/02/06,11:15,14,39,10.1,8.3
 2003/02/06,11:30,13.8,39,10.3,6.9
 2003/02/06,11:45,13.6,39,10.4,7
 2003/02/06,12:00,13.7,38,10.8,7.1
 2003/02/06,12:15,14.6,39,11.3,7.2
 2003/02/06,12:30,16.3,39,11.9,7.3
 2003/02/06,12:45,18.1,37,12,7.4
 2003/02/06,13:00,18,36,12.2,7.4
 2003/02/06,13:15,18.5,35,12.8,7.5
 2003/02/06,13:30,19.1,35,13.6,7.6
 2003/02/06,13:45,18.9,35,14.5,7.7
 2003/02/06,14:00,19.3,34,15,7.8
 2003/02/06,14:15,19.4,32,15.3,8
 2003/02/06,14:30,17.3,35,15.3,8.1
 2003/02/06,14:45,16.7,36,16.1,8.2
 2003/02/06,15:00,16.5,36,16,8.3
 2003/02/06,15:15,16.3,36,16.5,8.4
 2003/02/06,15:30,16.2,36,16.2,8.5
 2003/02/06,15:45,17.7,38,16.6,8.6
 2003/02/06,16:00,18.2,37,15.9,8.7
 2003/02/06,16:15,18.6,36,15.7,8.8
 2003/02/06,16:30,18.7,37,15.5,8.9
 2003/02/06,16:45,19.1,37,15.5,9
 2003/02/06,17:00,18.8,37,14.3,9.1
 2003/02/06,17:15,18.6,37,13.5,8.4
 2003/02/06,17:30,18.7,37,13.8,8.5
 2003/02/06,17:45,17.4,38,13.9,8.6
 2003/02/06,18:00,16.5,38,12.9,8.7
 2003/02/06,18:15,16.1,37,13.4,8.9
 2003/02/06,18:30,16.3,39,13.6,9
 2003/02/06,18:45,17.2,40,12.9,9.2
 2003/02/06,19:00,18.5,40,12.9,9.4
 2003/02/06,19:15,19.1,39,12.2,9.5
 2003/02/06,19:30,19.4,37,11.9,9.7
 2003/02/06,19:45,19.1,37,11.4,9.8
 2003/02/06,20:00,18.8,37,11.1,10
 2003/02/06,20:15,20.1,34,10.9,10.2
 2003/02/06,20:30,17.9,37,10.7,10.4
 2003/02/06,20:45,17.4,37,11.7,10.5
 2003/02/06,21:00,17.2,38,10.8,9.5
 2003/02/06,21:15,17,39,10.6,9.6
 2003/02/06,21:30,16.9,39,10.7,9.6
 2003/02/06,21:45,17.4,38,10.6,9.7
 2003/02/06,22:00,17.4,39,9.4,9.8
 2003/02/06,22:15,16.2,40,9.1,9.9
 2003/02/06,22:30,15.5,41,8.9,9.9
 2003/02/06,22:45,15.1,40,8.5,10
 2003/02/06,23:00,14.6,40,8.3,10.1
 2003/02/06,23:15,14.3,40,8.1,10.2
 2003/02/06,23:30,14,40,8,10.3
 2003/02/06,23:45,13.5,40,7.8,10.4
 2003/02/07, 0:00,13.3,41,7.5,10.4
 2003/02/07, 0:15,13.1,41,7.5,10.5
 2003/02/07, 0:30,12.7,41,7.3,10.6
 2003/02/07, 0:45,12.5,41,7.1,10.6
 2003/02/07, 1:00,12.3,41,6.8,8.8
 2003/02/07, 1:15,12.1,41,6.5,8.8
 2003/02/07, 1:30,11.8,41,6.4,8.9
 2003/02/07, 1:45,11.6,41,6.1,8.9
 2003/02/07, 2:00,11.4,41,5.9,9
 2003/02/07, 2:15,11.1,41,5.8,9
 2003/02/07, 2:30,11.1,42,5.7,9.1
 2003/02/07, 2:45,10.9,42,5.6,9.1
 2003/02/07, 3:00,10.7,42,5.5,9.2
 2003/02/07, 3:15,10.5,42,5.3,9.2
 2003/02/07, 3:30,10.3,42,5.3,9.3
 2003/02/07, 3:45,10.2,42,5.4,9.3
 2003/02/07, 4:00,10.1,43,5.6,9.3
 2003/02/07, 4:15,10.1,43,5.7,9.4
 2003/02/07, 4:30,9.9,43,5.8,9.4
 2003/02/07, 4:45,9.8,43,6.2,9.4
 2003/02/07, 5:00,9.7,44,5.5,9.5
 2003/02/07, 5:15,9.5,44,5.2,9.5
 2003/02/07, 5:30,9.5,44,5,9.5
 2003/02/07, 5:45,9.3,44,4.7,9.5
 2003/02/07, 6:00,9.1,44,4.4,9.6
 2003/02/07, 6:15,9,44,4.4,9.6
 2003/02/07, 6:30,8.8,45,4.2,7.9
 2003/02/07, 6:45,18.4,31,5.3,7.5
 2003/02/07, 7:00,20,31,5.5,7.5
 2003/02/07, 7:15,20.8,31,5.9,7.6
 2003/02/07, 7:30,20,32,6.2,7.7
 2003/02/07, 7:45,20.2,31,6.5,7.8
 2003/02/07, 8:00,19.3,32,7.2,7.8
 2003/02/07, 8:15,19.5,34,7.2,7.9
 2003/02/07, 8:30,19.3,34,7.9,8.1
 2003/02/07, 8:45,19.5,33,8.7,8.2
 2003/02/07, 9:00,20.2,31,8.7,8.3
 2003/02/07, 9:15,19.5,34,9.4,7.6
 2003/02/07, 9:30,18.6,35,8.9,7.7
 2003/02/07, 9:45,18.4,36,9.5,7.8
 2003/02/07,10:00,18.3,36,10,7.9
 2003/02/07,10:15,20,32,10.1,8
 2003/02/07,10:30,16.3,33,10.6,8.1
 2003/02/07,10:45,14.8,36,10.7,8.2
 2003/02/07,11:00,14.6,37,10.9,8.3
 2003/02/07,11:15,13.6,39,11.1,8.4
 2003/02/07,11:30,13.3,41,11.3,8.5
 2003/02/07,11:45,12.9,42,11.4,8.6
 2003/02/07,12:00,12.9,43,11.6,8.7
 2003/02/07,12:15,13.1,43,11.9,8.8
 2003/02/07,12:30,17.1,41,12.6,9
 2003/02/07,12:45,18.8,38,13.2,9.1
 2003/02/07,13:00,18.7,39,13.8,9.2
 2003/02/07,13:15,17.9,39,14.4,8.8
 2003/02/07,13:30,16.9,40,14.8,8.9
 2003/02/07,13:45,16.6,41,15.4,9
 2003/02/07,14:00,16.3,41,15.9,9.1
 2003/02/07,14:15,15.8,39,16,9.2
 2003/02/07,14:30,16.1,39,17,9.3
 2003/02/07,14:45,16.2,40,17.7,9.4
 2003/02/07,15:00,16.1,40,17.4,9.1
 2003/02/07,15:15,16.6,43,17.5,9.3
 2003/02/07,15:30,16.7,44,17.4,9.4
 2003/02/07,15:45,16.7,43,17.3,9.4
 2003/02/07,16:00,16.6,42,16.9,9.5
 2003/02/07,16:15,16.5,41,16.5,9.6
 2003/02/07,16:30,16.4,40,16.5,9.7
 2003/02/07,16:45,16.2,40,16.2,9.8
 2003/02/07,17:00,15.9,40,15.5,9.9
 2003/02/07,17:15,15.7,39,14.7,10.1
 2003/02/07,17:30,15.4,39,13.9,10.2
 2003/02/07,17:45,15.2,39,13.2,10.3
 2003/02/07,18:00,17.3,41,12.4,10.4
 2003/02/07,18:15,17.8,40,11.8,10.6
 2003/02/07,18:30,20.8,35,11.3,10.7
 2003/02/07,18:45,20.1,40,11,10.8
 2003/02/07,19:00,19.7,38,11.1,10.9
 2003/02/07,19:15,19.5,38,10.8,11
 2003/02/07,19:30,18.9,37,10.5,11.1
 2003/02/07,19:45,18.5,38,11.3,11.3
 2003/02/07,20:00,17.8,38,11.7,9.9
 2003/02/07,20:15,17,38,13.5,9.9
 2003/02/07,20:30,16.6,38,12.6,9.9
 2003/02/07,20:45,16.2,37,13.1,10
 2003/02/07,21:00,16,38,12.7,10.1
 2003/02/07,21:15,15.8,40,11.9,10.2
 2003/02/07,21:30,17.2,40,11.5,10.3
 2003/02/07,21:45,17.7,39,11.1,10.5
 2003/02/07,22:00,17.9,39,11.4,10.6
 2003/02/07,22:15,18,39,10.2,10.7
 2003/02/07,22:30,17.9,39,10,10.8
 2003/02/07,22:45,18,39,10.1,10.9
 2003/02/07,23:00,18,39,9.9,11
 2003/02/07,23:15,17.9,39,9.8,11.1
 2003/02/07,23:30,17.8,39,9.7,11.2
 2003/02/07,23:45,17.7,39,9.5,11.3
 2003/02/08, 0:00,17.5,39,9.8,11.4
 2003/02/08, 0:15,16.1,42,9.3,9.8
 2003/02/08, 0:30,15.5,42,9.1,9.8
 2003/02/08, 0:45,15.1,40,8.9,9.9
 2003/02/08, 1:00,14.5,40,8.7,9.9
 2003/02/08, 1:15,14.3,39,8.4,10
 2003/02/08, 1:30,13.8,39,8.1,10.1
 2003/02/08, 1:45,13.7,39,7.9,10.2
 2003/02/08, 2:00,13.4,39,7.7,10.2
 2003/02/08, 2:15,13.1,39,7.5,10.3
 2003/02/08, 2:30,12.8,39,7.3,10.4
 2003/02/08, 2:45,12.7,39,7.2,9.3
 2003/02/08, 3:00,12.5,39,7.1,8.9
 2003/02/08, 3:15,12.3,39,6.8,8.9